LEMUR-2-REDFERN-GOES

Last updated on Thu Dec 06 2018 00:02:08 GMT+0000 (Coordinated Universal Time)

1 42059U 98067LA 18339.01149047 .06489327 12347-4 60049-3 0 9992 2 42059 51.6164 167.8673 0006595 274.6680 85.3593 16.37893608100365

Satellite not in orbit